Home   Weather   Fairfax   Past weeks

Flag for USA Past Weather in Fairfax, Virginia, USA — Yesterday and Last 2 Weeks

47 °F

Passing clouds.

Feels Like: 41 °F
Forecast: 44 / 66 °F
Wind: 14 mph from Northwest

Location: Washington-Dulles International Airport

Current Time: Oct 23, 2016 at 4:06:21 AM

Latest Report: Oct 23, 2016 at 2:52 AM

Visibility: 10 mi

Pressure: 29.96 "Hg

Humidity: 54%

Dew Point: 31 °F

Location of FairfaxLocation

Past Weather in Fairfax — Graph


Fairfax Temperature Yesterday

Maximum temperature yesterday: 57 °F (at 12:52 PM)
Minimum temperature yesterday: 49 °F (at 9:52 PM)
Average temperature yesterday: 53 °F

High & Low Weather Summary for the Past Weeks

High86 °F (Oct 19, 1:52 PM)100% (Oct 16, 8:52 AM)30.48 "Hg (Oct 16, 8:52 AM)
Low37 °F (Oct 11, 3:52 AM)32% (Oct 10, 3:52 PM)29.58 "Hg (Oct 21, 3:52 PM)
Average61 °F70%30.09 "Hg
* Reported Oct 8 2:52 AM — Oct 23 2:52 AM, Fairfax, Weather by CustomWeather, © 2016

Note: Actual official high and low records may vary slightly from our data, if they occured in-between our weather recording intervals... More about our weather records


Fairfax Weather History for the Previous 24 Hours

Scroll right to see more
Time TempWeatherWind HumidityBarometerVisibility
2:52 AM
Sun, Oct 23
47 °FPassing clouds.14 mph54%29.96 "Hg10 mi
1:52 AM48 °FClear.12 mph52%29.94 "Hg10 mi
12:52 AM47 °FPassing clouds.10 mph52%29.94 "Hg10 mi
11:52 PM
Sat, Oct 22
49 °FPassing clouds.20 mph46%29.92 "Hg10 mi
10:52 PM49 °FPassing clouds.23 mph44%29.90 "Hg10 mi
9:52 PM49 °FClear.18 mph44%29.90 "Hg10 mi
8:52 PM50 °FPassing clouds.17 mph43%29.89 "Hg10 mi
7:52 PM51 °FPassing clouds.21 mph44%29.87 "Hg10 mi
6:52 PM52 °FPassing clouds.22 mph45%29.84 "Hg10 mi
5:52 PM54 °FScattered clouds.17 mph43%29.81 "Hg10 mi
4:52 PM56 °FPartly sunny.28 mph40%29.78 "Hg10 mi
3:52 PM56 °FPartly sunny.22 mph42%29.78 "Hg10 mi
2:52 PM56 °FScattered clouds.25 mph42%29.75 "Hg10 mi
1:52 PM56 °FPartly sunny.23 mph42%29.75 "Hg10 mi
12:52 PM57 °FScattered clouds.29 mph39%29.75 "Hg10 mi
11:52 AM56 °FScattered clouds.32 mph40%29.75 "Hg10 mi
10:52 AM53 °FScattered clouds.24 mph47%29.75 "Hg10 mi
9:52 AM52 °FPartly sunny.26 mph49%29.73 "Hg10 mi
8:52 AM51 °FPartly sunny.21 mph54%29.71 "Hg10 mi
7:52 AM51 °FBroken clouds.21 mph59%29.68 "Hg10 mi
6:52 AM53 °FMostly cloudy.21 mph59%29.66 "Hg10 mi
5:52 AM52 °FOvercast.17 mph66%29.65 "Hg10 mi
4:52 AM53 °FMostly cloudy.20 mph61%29.64 "Hg10 mi
Weather by CustomWeather, © 2016

See weather overviewHow to use our weather pages